Regional Weather Roundup
Issued by NWS Charleston, SC

Current Version | Previous Version | Graphics & Text | Print | Product List | Glossary On
Versions: 1 2 3 4 5 6 7 8 9 10 11 12 13 14 15 16 17 18 19 20 21 22 23 24 25 26 27 28 29 30 31 32 33 34 35 36 37 38 39 40 41 42 43 44 45 46 47 48 49 50
000
ASUS42 KCHS 231826
RWRCHS
REGIONAL WEATHER ROUNDUP
NATIONAL WEATHER SERVICE CHARLESTON SC
200 PM EDT SAT MAY 23 2015

NOTE: "FAIR" INDICATES FEW OR NO CLOUDS BELOW 12,000 FEET WITH NO
SIGNIFICANT WEATHER AND/OR OBSTRUCTIONS TO VISIBILITY.

NOT ALL STATIONS ARE QUALITY CONTROLLED BY THE NATIONAL
WEATHER SERVICE. USE DATA WITH CAUTION...ESPECIALLY
DEWPOINT OBSERVATIONS.

SCZ027-030-031-034>040-042>050-231900-
...SOUTHEAST SOUTH CAROLINA...

CITY           SKY/WX    TMP DP  RH WIND       PRES   REMARKS
N CHARLESTON   MOSUNNY   80  56  43 SE16      30.37S
6HR MIN TEMP:  66; 6HR MAX TEMP:  80;

WATERFRONT PAR   N/A     74  60  61 E14       30.35S
MOUNT PLEASANT LGT RAIN  77  59  53 E9G20     30.38S
JOHNS ISLAND   CLEAR     77  61  57 E14G20    30.38S
PINOPOLIS        N/A     79  52  38 E5        30.28
MONCKS CORNER  FAIR      82  52  34 SE8       30.36S
SUMMERVILLE    FAIR      82  55  39 E6        30.37S
BEAUFORT MCAS  SUNNY     80  61  52 E13G23    30.36F
6HR MIN TEMP:  67; 6HR MAX TEMP:  80;

BEAUFORT ARPT  FAIR      77  61  57 E14       30.35F
HILTON HEAD IS MOSUNNY   77  63  61 N13G22    30.37F
WALTERBORO     CLEAR     81  50  34 E9        30.36F
ALLENDALE      FAIR      81  45  28 VRB5G12   30.35F

...SOUTHERN MIDLANDS AND PEE DEE...

CITY           SKY/WX    TMP DP  RH WIND       PRES   REMARKS
GEORGETOWN     NOT AVBL
KINGSTREE      NOT AVBL
ORANGEBURG     SUNNY     79  47  32 VRB6G17   30.37F
6HR MIN TEMP:  64; 6HR MAX TEMP:  80;

BARNWELL       FAIR      82  45  26 E9        30.37S
AIKEN          FAIR      81  37  21 SE12      30.40S
MANNING        FAIR      79  41  25 SE5       30.37S
COLUMBIA       SUNNY     81  42  25 E13       30.37F
6HR MIN TEMP:  58; 6HR MAX TEMP:  83;

SUMTER         SUNNY     81  44  27 E10G17    30.37F
6HR MIN TEMP:  60; 6HR MAX TEMP:  82;

FLORENCE       SUNNY     82  46  28 E13       30.38F
6HR MIN TEMP:  61; 6HR MAX TEMP:  82;

MYRTLE BEACH   SUNNY     79  54  41 SE15      30.41F
N MYRTLE BEACH SUNNY     78  53  41 SE10      30.39F
6HR MIN TEMP:  64; 6HR MAX TEMP:  78;


$$

GAZ063-065-086>088-099>101-113>116-118-119-134>141-150-231900-
...SOUTHEAST GEORGIA...

CITY           SKY/WX    TMP DP  RH WIND       PRES   REMARKS
SAVANNAH ARPT  MOSUNNY   78  58  49 E12       30.35F
6HR MIN TEMP:  66; 6HR MAX TEMP:  81;

HUNTER AAF     NOT AVBL
FORT STEWART   PTSUNNY   81  61  49 NE9       30.31F
6HR MIN TEMP:  65; 6HR MAX TEMP:  82;

STATESBORO     SUNNY     81  59  46 SE8       30.34F
SYLVANIA       CLEAR     83  53  35 E5        30.35F
CLAXTON        FAIR      81  57  44 NE6G16    30.33F

...CSRA...CENTRAL AND FAR SOUTHEAST GEORGIA...

CITY           SKY/WX    TMP DP  RH WIND       PRES   REMARKS
THOMSON        SUNNY     83  51  32 E9        30.40F
AUGUSTA-BUSH   SUNNY     82  49  31 E10       30.35F
6HR MIN TEMP:  59; 6HR MAX TEMP:  83;

AUGUSTA-DANIEL SUNNY     83  46  27 E12       30.36F
SWAINSBORO     FAIR      82  48  30 SE10G20   30.34F
VIDALIA        SUNNY     82  46  28 SE10G20   30.33F
EASTMAN        FAIR      84  51  32 SE8G16    30.35S
HAZLEHURST     FAIR      84  53  34 SE9       30.30F
ALMA           MOSUNNY   81  58  45 SE8G16    30.31F
6HR MIN TEMP:  65; 6HR MAX TEMP:  83;

WAYCROSS       MOSUNNY   84  63  49 SE9       30.30F
JESUP          FAIR      82  64  54 SE14      30.32S
BAXLEY         FAIR      82  59  44 E7        30.31F
BRUNSWICK      CLOUDY    79  63  57 E20       30.34R
SAINT SIMONS   NOT AVBL

$$

SCZ027-028-034-036>038-045-046-048>050-GAZ119-141-231900-
...LAKE AND SUPPLEMENTAL COASTAL OBSERVATIONS...

STATION/POSITION TIME  TEMP    WIND        PRES    WAVE   SWELL
                       AIR SEA DIR/SP/G            HT/PER HT/PER/DIR
                 (UTC) (F)     (DEG/KT/KT) (MB)    (FT/S) (FT/S/D)
UPR LAKE MARION  NOT AVBL
WINYAH BAY       1700   72      60/ 13     1028.0S
LAKE MURRAY      1700   76      60/  4/ 12 1028.4F
ACE BASIN NERRS  1700   81      70/  4     1028.0S
FORT PULASKI     1800   74 78   50/ 16/ 19 1028.4F
SAPELO ISLAND    1800   79      50/ 15     1027.0S

$$

ANZ835-935-AMZ111-154-330-350-352-354-370-450-454-472-231900-
...C-MAN AND BUOY OBSERVATIONS...

STATION/POSITION TIME  TEMP    WIND        PRES    WAVE   SWELL
                       AIR SEA DIR/SP/G            HT/PER HT/PER/DIR
                 (UTC) (F)     (DEG/KT/KT) (MB)    (FT/S) (FT/S/D)
BUOY 41004       1750   74 75   50/ 16/ 17 1027.3F   4/ 5   2/ 7
BUOY 41008       1750   74 75   50/ 17/ 21 1026.9F   5/ 6   2/ 90/ 8
FOLLY BEACH CMAN 1800   74      70/ 14/ 17 1028.7F
CAPERS NEARSHORE 1708   72      70/ 16/ 19 1028.9F
FRIPP NEARSHORE  1700   74      80/ 16/ 17 1027.4S


STATION/POSITION TIME  TEMP    WIND        PRES    WAVE   SWELL
                       AIR SEA DIR/SP/G            HT/PER HT/PER/DIR
                 (UTC) (F)     (DEG/KT/KT) (MB)    (FT/S) (FT/S/D)
5E ST. MARYS GA  1721      77                N/A     5/ 6
FRYING PAN BUOY  1750   73 74   60/ 14/ 16 1029.4F   3/ 4   2/100/ 8
BUOY 41025       1750   68 78   30/ 14/ 16 1029.8R   3/ 9   2/ 50/ 9
CAPE LOOKOUT NC  1800   71      60/ 14/ 15 1029.5F
BUOY 41002       1750   71 74   70/ 17/ 21 1027.1    5/ 6
BUOY 41010       1720   80 81   60/ 16/ 17 1024.2F
ST AUGUSTINE FL  1800   76 77   30/ 14/ 15 1026.1F


$$



USA.gov is the U.S. government's official web portal to all federal, state and local government web resources and services.